Flag for U.S.A. Weather past 2 weeks in Osage City, Kansas, U.S.A.

Now
83 °F

Sunny.


Feels Like: 85 °F
Forecast: 71 / 92 °F
Wind: 3 mph from West

Location: Forbes Field

Current Time: Sep 2, 2014 at 7:10:56 PM

Latest Report: Sep 2, 2014 at 5:53 PM


Visibility: 10 mi

Pressure: 29.90 "Hg

Humidity: 55%

Dew point: 65 °F

Location of Osage CityLocation

Historic Weather in Osage City — Graph

°F

Osage City temperature yesterday

Maximum temperature yesterday: 79 °F (at 3:53 PM)
Minimum temperature yesterday: 66 °F (at 5:53 AM)
Average temperature yesterday: 72 °F

Past Weeks' High & Low Weather Summary

 TemperatureHumidityPressure
High101 °F (Aug 23, 2:53 PM)100% (Sep 2, 3:53 AM)30.13 "Hg (Sep 2, 3:53 AM)
Low65 °F (Aug 30, 6:53 AM)24% (Aug 23, 2:53 PM)29.62 "Hg (Aug 31, 6:53 PM)
Average82 °F64%29.86 "Hg
* Reported Aug 18 5:53 PM — Sep 2 5:53 PM, Osage City, Weather by CustomWeather, © 2014

Note: Actual official high and low records may vary slightly from our data, if they occured in-between our weather recording intervals... More about our weather records

Advertising

Osage City weather history for previous 24 hours

 ConditionsComfort  
Time TempWeatherWind HumidityBarometerVisibility
5:53 PM
Sep 2
83 °FSunny.3 mph55%29.90 "Hg10 mi
4:53 PM82 °FPassing clouds.7 mph60%29.92 "Hg10 mi
3:53 PM83 °FPartly sunny.8 mph59%29.94 "Hg10 mi
2:53 PM80 °FPassing clouds.6 mph67%29.97 "Hg10 mi
2:00 PM78 °FPartly sunny.9 mph71%30.03 "Hg9 mi
12:53 PM77 °FMostly cloudy.9 mph77%30.00 "Hg10 mi
11:53 AM76 °FPassing clouds.No wind80%29.98 "Hg10 mi
10:53 AM73 °FLow clouds.3 mph88%29.99 "Hg8 mi
9:53 AM69 °FFog.6 mph96%29.98 "Hg1 mi
8:53 AM68 °FFog.No wind100%29.96 "Hg0 mi
7:53 AM68 °FFog.No wind100%29.96 "Hg0 mi
6:53 AM68 °FFog.No wind96%29.92 "Hg0 mi
5:53 AM68 °FFog.6 mph100%29.90 "Hg0 mi
4:53 AM69 °FFog.No wind96%29.89 "Hg0 mi
4:01 AM70 °FFog.3 mph93%29.93 "Hg2 mi
3:53 AM69 °FFog.3 mph100%29.91 "Hg1 mi
2:53 AM70 °FClear.3 mph93%29.90 "Hg10 mi
1:53 AM69 °FPassing clouds.6 mph96%29.90 "Hg10 mi
12:53 AM71 °FPassing clouds.9 mph93%29.87 "Hg10 mi
11:53 PM
Sep 1
70 °FPassing clouds.N/A97%29.86 "Hg10 mi
10:53 PM70 °FPassing clouds.6 mph97%29.88 "Hg8 mi
9:53 PM70 °FPassing clouds.3 mph97%29.85 "Hg10 mi
8:53 PM71 °FOvercast.6 mph93%29.84 "Hg10 mi
7:53 PM75 °FBroken clouds.5 mph79%29.80 "Hg10 mi
Weather by CustomWeather, © 2014

See weather overviewHow to use our weather pages